Overview Statistics Trail Chart Weather Telemetry Raw packets
 

This is the latest recevied weather packets stored in our database for station/object K6GMW. If no packets are shown the sender has not sent any weather packets the latest 10 day(s).

<< 103 104 105 106 107 108 109 >>
Time Temp. Humidity Pressure Rain* Wind** Luminosity Snow
1787852261 30.56° C 65% 1017.5 hPa 0 mm - 932 W/m² -
1787851956 30° C 68% 1017.6 hPa 0 mm - 923 W/m² -
1787851656 29.44° C 68% 1017.8 hPa 0 mm - 906 W/m² -
1787851355 30.56° C 66% 1017.7 hPa 0 mm - 903 W/m² -
1787851051 30° C 68% 1017.8 hPa 0 mm - 903 W/m² -
1787850746 30° C 68% 1017.9 hPa 0 mm - 900 W/m² -
1787850442 30.56° C 67% 1017.7 hPa 0 mm - 219 W/m² -
1787850137 30° C 70% 1017.9 hPa 0 mm - 890 W/m² -
1787849836 28.89° C 71% 1017.8 hPa 0 mm - 895 W/m² -
1787849532 28.89° C 71% 1017.8 hPa 0 mm - 890 W/m² -
1787849231 28.89° C 70% 1017.8 hPa 0 mm - 905 W/m² -
1787848930 28.89° C 71% 1017.8 hPa 0 mm - 959 W/m² -
1787848624 28.89° C 72% 1018 hPa 0 mm - 987 W/m² -
1787848320 29.44° C 69% 1017.9 hPa 0 mm - 888 W/m² -
1787848020 28.89° C 72% 1017.8 hPa 0 mm - 422 W/m² -
1787847720 27.78° C 74% 1017.8 hPa 0 mm - 754 W/m² -
1787847415 28.33° C 73% 1017.9 hPa 0 mm - 829 W/m² -
1787847110 28.33° C 73% 1018 hPa 0 mm - 333 W/m² -
1787846806 27.78° C 75% 1017.8 hPa 0 mm - 788 W/m² -
1787846501 27.22° C 76% 1017.9 hPa 0 mm - 399 W/m² -
1787846197 27.78° C 74% 1017.7 hPa 0 mm - 417 W/m² -
1787845893 27.78° C 75% 1017.7 hPa 0 mm - 355 W/m² -
1787845593 27.78° C 76% 1017.7 hPa 0 mm - 708 W/m² -
1787845288 27.78° C 75% 1017.6 hPa 0 mm - 366 W/m² -
1787844984 27.78° C 78% 1017.7 hPa 0 mm - 349 W/m² -

* Rain latest hour (hover to see other rain measurements)
** Current wind speed in m/s (hover to see current wind gust speed)